Satellite-Ground Cal/Val Site Overpasses Predictions

Prediction of Satellite NPP Overpassing Cal/Val Site: Antarctic Dome C

Ground Cal/Val Site Location: Latitude: -75.10, Longitude: 123.35; Satellite-Ground Site NADIR distance within 100 km.

Table of predicted overpasses for the next 14.0 days since TLE Epoch: 2/24/2013
Interval Starting Time Ending Time Minimum Distance Time Minimum Distance (km)
1 02/24/2013 14:59:49 02/24/2013 15:00:12 02/24/2013 15:00:00 60.73
2 02/25/2013 14:40:59 02/25/2013 14:41:24 02/25/2013 14:41:11 48.52
3 02/26/2013 07:42:41 02/26/2013 07:43:01 02/26/2013 07:42:51 70.74
4 02/27/2013 07:23:49 02/27/2013 07:24:16 02/27/2013 07:24:02 37.04
5 03/01/2013 15:06:19 03/01/2013 15:06:23 03/01/2013 15:06:21 98.73
6 03/02/2013 14:47:18 03/02/2013 14:47:47 03/02/2013 14:47:32 12.90
7 03/04/2013 07:30:09 03/04/2013 07:30:38 03/04/2013 07:30:23 1.62
8 03/07/2013 14:53:39 03/07/2013 14:54:07 03/07/2013 14:53:53 24.11
9 03/08/2013 14:34:56 03/08/2013 14:35:12 03/08/2013 14:35:04 82.90
